{"data":{"norad_id":53547,"epoch":"2026-05-25T04:47:10.874688Z","epoch_age_seconds":57713,"freshness":"FRESH","line1":"1 53547U 22101W   26145.19943142  .00000219  00000+0  31823-4 0  9993","line2":"2 53547  53.2136  80.6506 0001454  76.0833 284.0321 15.08847354208524","mean_motion":15.08847354,"eccentricity":0.0001454,"inclination_deg":53.2136,"raan_deg":80.6506,"arg_perigee_deg":76.0833,"mean_anomaly_deg":284.0321,"bstar":3.1823e-5,"rev_number":20852,"period_min":95.437089522841,"perigee_km":538.71505427918,"apogee_km":540.72676735965,"semimajor_km":6917.8579108194,"source":"CELESTRAK","updated_at":"2026-05-25T13:38:17.443686Z"}}